Location: *
(39.6167°S, 171.5333°W)
Time: 20:05:54
(UTC+00:00)

CZ-4B R/B - Pass Details

Date: 13 May 2021
Orbit: 809 x 881 km, 99.1° (Epoch: 19 June)

Event Time Altitude Azimuth Distance (km) Brightness Sun altitude
Rises 17:19:01 0° 12° (NNE) 3,446 6.7 -12.4°
Reaches altitude 10° 17:21:24 10° 10° (N) 2,508 6.0 -11.9°
Maximum altitude 17:26:59 78° 284° (WNW) 886 3.2 -10.9°
Drops below altitude 10° 17:32:33 10° 197° (SSW) 2,493 5.3 -9.9°
Sets 17:34:55 0° 195° (SSW) 3,424 6.1 -9.4°
